Temperature
25 23 23 23 23 22 21 21 20 19 19 19 18 18 18 18 17 17 17 17 17 16 16 16 16 16 16 16 16 15 15 15 15 15 14 14 14 14 14 14 14 15 15
25 23 22 22 22 22 21 21 20 19 19 18 18 18 18 18 17 17 17 17 17 16 16 16 16 16 16 16 16 15 15 15 15 15 15 15 14 14 14 14 14 14 14
24 23 22 22 22 21 21 21 20 20 19 18 18 18 18 18 18 17 17 17 17 16 16 16 16 16 16 16 16 16 16 15 15 16 16 16 16 15 14 14 14 14 14
23 22 22 21 21 20 21 20 20 19 19 18 17 17 17 17 17 17 17 17 17 16 16 16 16 16 16 16 16 16 16 16 15 16 16 17 17 17 15 14 14 14 14
23 22 21 21 20 20 20 19 19 19 18 17 17 17 17 17 16 16 16 16 16 16 16 16 16 16 16 16 16 16 15 15 15 15 15 16 16 17 17 16 15 14 14
22 22 21 21 20 20 20 20 19 19 18 17 17 16 16 16 16 16 16 16 16 16 16 16 16 16 16 15 15 15 15 15 15 15 15 15 16 16 17 17 16 15 15
22 22 21 20 20 20 19 19 19 18 18 17 17 16 16 16 15 15 15 15 16 16 16 16 16 15 15 15 15 15 15 15 15 15 15 15 16 16 17 17 17 16 15
22 21 21 21 20 19 19 19 18 18 17 17 16 16 16 15 15 15 15 15 15 15 15 15 15 15 15 15 14 14 14 15 15 15 15 15 15 15 15 16 16 16 16
22 22 21 21 20 19 19 19 18 17 17 17 16 16 16 15 15 15 15 15 15 15 15 15 14 14 14 14 14 14 14 14 15 15 15 15 15 15 15 15 15 15 15
23 23 22 21 20 20 19 19 18 18 17 17 16 16 16 15 15 15 15 15 14 14 14 14 14 14 13 13 13 13 13 14 14 14 14 15 15 15 15 15 15 15 15
23 23 22 21 21 20 20 19 19 18 17 17 16 16 16 15 15 15 15 15 14 14 14 14 14 13 13 13 13 13 13 13 13 14 14 14 14 15 15 15 15 15 15
22 22 22 21 21 21 20 20 19 18 18 17 16 16 16 16 15 15 15 15 14 14 14 14 14 13 13 13 13 13 13 13 13 13 13 14 14 15 15 15 15 15 15
22 22 22 21 21 21 20 20 19 19 18 17 17 16 16 16 16 15 15 15 15 14 14 14 14 14 13 13 13 13 13 13 13 13 13 14 14 14 15 15 15 15 15
22 22 21 21 21 21 20 20 19 19 18 17 17 16 16 16 16 15 15 15 15 15 14 14 14 14 14 14 13 13 13 13 13 13 13 13 14 14 14 15 15 15 15
21 21 21 21 20 20 20 19 19 19 18 18 17 16 16 16 15 15 15 15 15 14 14 14 14 14 14 14 14 14 13 13 13 13 14 14 14 14 14 14 15 15 15
21 21 21 20 20 19 19 19 19 19 18 18 17 16 16 16 16 15 15 15 15 14 14 14 14 14 14 14 14 14 14 14 14 14 14 14 14 14 14 15 15 15 15
20 19 19 19 19 19 18 18 18 18 18 17 17 16 16 16 16 15 15 15 15 14 14 14 14 14 14 14 14 14 14 14 14 14 14 14 14 14 14 14 14 15 15
18 18 18 18 18 18 18 18 18 18 17 17 16 16 16 16 16 15 15 15 14 14 14 14 14 14 14 14 14 14 14 14 14 14 13 13 14 14 14 14 14 14 15
16 17 17 18 18 18 18 18 17 17 16 16 15 15 15 15 15 15 15 15 14 14 14 14 14 14 14 14 14 14 14 14 14 13 13 13 14 14 14 14 14 14 14
16 17 17 17 18 17 17 16 16 15 15 14 14 14 14 14 14 14 14 14 14 14 14 14 14 14 13 13 14 14 13 13 13 13 13 14 14 14 14 14 14 14 14
15 15 16 17 16 15 15 15 14 13 13 13 13 13 13 13 13 14 14 14 14 14 14 14 13 13 13 13 13 13 13 13 13 13 13 13 14 14 14 14 13 13 13
15 15 15 15 14 14 14 13 13 12 12 12 12 12 12 12 12 13 13 13 13 13 13 13 13 13 13 13 13 13 13 13 12 12 13 13 14 14 13 13 13 13 13
15 14 14 14 13 13 13 13 12 12 12 11 11 11 11 12 12 12 12 12 12 12 12 12 12 12 12 12 12 13 13 12 12 12 13 13 13 13 13 13 12 12 12
15 14 14 14 13 13 13 13 12 12 11 11 11 11 11 11 11 11 11 11 11 11 11 12 12 12 12 12 12 12 12 12 12 12 12 12 12 12 12 12 12 12 12
15 14 14 14 13 13 13 13 13 12 11 11 11 11 11 11 11 11 11 11 11 11 11 11 11 11 11 12 12 12 12 12 12 12 12 12 12 11 11 11 11 11 11
15 15 14 14 14 13 13 13 13 12 11 11 11 11 11 11 11 11 11 11 11 11 11 11 11 11 11 11 12 12 12 12 12 12 12 11 11 11 11 11 11 11 11
Wind_Speed
9 7 6 6 6 6 7 8 9 11 10 10 10 9 8 9 8 8 11 12 13 13 11 9 11 10 10 11 11 9 10 8 8 7 6 4 3 4 5 4 5 7 7
10 8 7 5 4 3 2 4 6 8 10 9 9 7 7 8 8 8 9 12 14 14 12 13 11 11 9 11 12 11 9 8 9 8 6 5 4 3 3 3 3 4 5
11 10 8 6 4 3 3 3 4 7 9 9 7 5 5 4 6 8 9 11 13 14 13 13 12 11 11 9 12 13 13 10 11 10 7 4 4 6 5 5 4 3 3
11 10 9 7 5 4 4 4 5 6 8 9 9 9 7 7 8 7 8 10 12 13 14 13 12 11 9 9 10 12 12 11 11 10 7 5 3 4 5 6 6 5 4
12 11 9 7 5 5 5 5 6 6 7 7 7 7 6 5 5 5 7 8 9 11 13 13 12 12 10 10 10 10 12 11 11 10 9 7 4 6 4 6 7 7 6
12 11 9 7 6 6 5 5 6 6 6 6 6 6 5 5 6 6 6 6 6 7 10 11 11 12 10 9 8 9 11 11 12 11 9 8 7 7 5 5 7 7 6
12 11 10 9 8 7 7 6 6 6 6 6 6 6 5 6 7 7 7 6 6 6 9 9 10 11 11 9 8 8 10 11 12 12 10 9 9 7 6 5 4 5 6
11 10 10 9 9 9 8 8 8 7 7 6 5 5 5 5 5 6 5 6 5 6 7 9 9 10 10 10 9 6 8 9 11 11 10 8 8 7 7 6 5 5 5
10 10 10 10 10 10 10 10 9 8 7 7 6 5 5 5 5 5 5 5 5 4 7 8 9 10 10 10 10 7 7 7 8 9 10 9 8 8 8 8 8 7 6
8 10 10 10 11 11 11 11 10 9 8 7 6 5 5 5 5 4 5 5 5 6 8 8 9 10 10 10 9 7 6 6 6 6 8 9 8 8 9 9 9 9 8
6 8 9 10 11 11 11 12 11 10 9 9 8 7 6 6 6 5 5 5 6 7 8 9 10 10 10 10 9 8 8 6 6 6 7 9 9 8 9 9 9 9 9
6 6 7 9 11 12 12 13 12 12 10 9 9 8 6 6 7 7 6 6 7 7 8 9 10 10 10 10 10 9 9 7 6 6 8 9 8 11 9 8 10 9 10
9 8 7 8 10 12 13 13 13 12 11 10 9 9 8 7 7 7 7 7 8 8 8 8 9 10 10 10 10 10 9 8 8 7 8 9 9 11 9 10 10 9 9
12 10 8 7 8 11 12 12 12 11 10 10 10 9 8 8 8 8 8 8 9 9 9 9 9 9 10 11 11 10 10 10 10 10 10 10 10 11 10 10 11 10 10
12 10 9 6 6 9 10 10 10 10 10 10 9 9 8 8 8 8 8 9 9 9 10 9 9 9 8 9 10 10 11 11 11 11 11 11 11 11 10 9 10 10 10
9 7 6 3 4 7 8 8 8 8 8 8 8 7 7 7 7 8 9 9 9 9 10 10 10 9 8 6 7 8 9 10 11 11 11 10 12 13 14 14 12 11 12
6 3 2 2 4 5 6 6 6 6 6 6 6 6 7 8 8 8 8 9 9 10 10 11 10 10 8 8 8 9 8 9 10 11 11 9 10 11 12 13 16 15 16
6 6 7 8 8 7 7 6 4 3 2 3 4 5 6 7 8 8 9 9 9 9 9 9 10 9 8 8 8 8 10 10 10 11 11 11 11 11 11 11 12 13 14
8 9 9 10 10 10 9 8 7 5 3 2 1 2 4 6 8 9 9 9 9 9 9 9 9 9 8 8 8 8 9 9 10 9 10 10 11 9 9 10 10 10 10
8 8 9 10 11 10 9 9 9 8 7 5 3 2 2 4 6 8 8 8 9 9 9 9 9 9 8 8 9 10 8 8 7 6 7 7 8 5 9 10 10 10 9
6 6 8 9 9 9 9 10 10 9 8 6 5 4 2 1 3 5 6 7 8 9 10 10 9 9 8 8 8 8 7 6 5 5 4 3 5 5 8 8 6 5 4
4 5 6 8 7 7 8 9 9 7 6 7 7 7 6 4 2 1 3 5 7 8 9 10 9 7 7 6 7 7 7 6 5 3 3 2 5 6 6 5 3 3 3
3 3 5 6 6 6 6 7 6 5 6 6 7 7 6 6 4 2 2 3 4 6 7 8 8 7 6 5 6 6 7 7 5 1 4 5 7 7 6 5 5 5 4
3 3 3 3 3 3 3 4 3 4 5 6 6 6 6 6 6 4 2 2 3 4 5 6 6 6 6 5 4 5 6 7 6 4 7 7 5 4 5 7 6 4 4
4 4 4 2 1 2 3 3 3 3 4 5 5 5 6 6 6 6 6 4 4 3 1 2 3 3 4 2 1 3 3 4 5 6 6 5 5 5 5 4 4 4 4
6 6 5 4 2 2 3 3 2 2 3 4 4 4 4 4 4 5 6 12 10 10 10 9 5 5 5 3 1 1 2 4 5 4 4 4 4 4 4 4 4 4 4
Wind_Direction
217 203 205 212 221 226 231 227 223 214 200 189 191 197 204 212 211 208 204 200 205 208 203 207 209 200 197 196 194 184 182 180 177 163 155 145 142 113 115 95 91 86 76
204 195 188 179 178 174 194 205 202 197 192 192 194 203 203 213 211 208 208 203 202 204 206 208 210 210 209 202 197 188 186 186 190 188 173 166 167 180 158 145 114 108 97
207 189 178 166 156 145 143 159 173 179 187 184 181 180 184 193 198 206 207 206 204 204 207 213 213 217 213 206 200 194 190 190 202 207 200 193 179 163 180 180 179 146 127
195 180 173 164 153 133 132 144 156 168 177 181 190 196 207 214 218 215 208 206 207 206 208 212 212 217 217 211 204 200 199 196 200 211 230 241 167 174 165 193 196 188 185
183 174 169 160 147 134 135 139 147 158 170 187 193 206 218 224 215 212 213 210 206 209 208 211 209 209 209 207 203 201 204 203 205 205 207 213 203 235 192 172 184 195 202
175 170 164 164 155 145 143 146 150 151 163 180 192 205 203 205 205 210 212 209 203 205 208 206 204 200 194 191 192 200 207 213 213 213 211 209 209 223 215 195 180 186 184
174 175 176 179 177 171 165 162 160 161 170 184 195 198 199 212 216 216 215 214 207 206 206 201 201 194 186 175 174 197 205 216 220 219 223 226 228 231 229 232 200 183 172
184 188 191 190 189 185 180 177 175 173 176 188 195 201 195 213 226 223 223 221 217 211 201 197 193 182 174 165 168 186 203 214 218 220 224 231 234 239 241 246 239 221 201
200 203 203 200 198 195 191 188 184 182 184 190 191 201 203 213 223 220 217 220 216 197 185 183 175 168 164 161 162 173 190 205 216 216 217 223 229 235 242 248 246 242 238
220 217 214 210 206 201 195 191 190 187 188 191 191 191 205 206 215 213 207 209 200 185 175 176 171 166 162 159 157 161 171 187 205 216 217 218 227 230 232 236 242 244 243
256 237 226 219 210 202 195 191 191 192 190 191 190 194 197 199 200 206 202 201 196 190 187 187 182 178 173 169 164 161 164 177 195 213 225 226 224 226 225 226 230 235 235
290 266 247 230 215 207 199 195 194 193 192 192 193 198 195 196 205 205 202 201 198 200 201 195 190 188 184 177 173 171 172 178 199 217 229 235 230 231 228 223 226 228 231
288 278 259 239 225 213 204 199 197 195 190 190 194 196 199 204 210 210 205 206 205 203 204 202 201 197 191 189 190 188 184 190 203 219 233 240 236 235 231 226 229 230 229
286 281 271 254 232 218 206 199 193 190 189 193 198 202 206 207 212 213 211 212 210 210 210 209 209 208 203 201 202 200 200 203 211 220 231 237 235 236 236 232 234 230 225
282 279 276 266 231 212 199 191 186 185 189 197 205 209 210 207 212 214 214 215 216 218 214 213 214 210 210 213 212 209 210 214 217 224 230 238 244 246 242 239 236 230 224
290 288 282 263 215 195 184 177 181 186 194 203 210 209 214 208 210 214 217 214 213 218 218 219 218 214 218 191 199 225 220 224 227 232 235 238 242 243 236 237 238 233 225
327 341 25 93 130 144 155 163 172 177 197 207 210 211 214 211 211 212 211 209 212 216 218 219 217 218 209 177 196 218 239 237 239 240 241 241 242 241 246 231 224 227 232
29 59 79 87 90 96 105 112 120 144 187 215 222 219 220 217 212 210 208 209 212 208 214 217 214 214 203 185 206 211 237 245 245 244 246 244 244 239 239 236 227 227 224
54 69 78 84 82 81 87 91 89 85 77 50 315 246 228 223 217 213 210 208 208 207 210 209 209 211 201 188 208 222 239 245 247 247 247 248 246 235 221 230 227 228 230
60 73 80 81 79 78 84 86 80 71 57 39 21 356 261 235 227 223 218 210 210 212 211 210 211 212 214 183 201 226 239 243 244 243 244 242 250 240 203 224 223 226 225
54 69 79 79 79 83 85 81 72 60 47 38 36 33 15 292 247 228 218 211 210 211 212 210 208 209 212 187 196 222 242 247 250 243 238 229 191 209 201 222 225 224 222
62 72 86 85 81 80 81 77 68 57 46 40 37 32 27 22 25 214 204 204 202 202 203 201 196 197 196 204 196 213 237 266 252 245 229 167 156 170 173 191 160 153 191
95 97 106 102 91 74 64 67 62 42 35 34 33 30 34 38 40 56 133 174 190 192 193 194 187 185 189 192 202 221 224 228 243 189 91 121 151 162 167 159 166 180 192
153 147 147 128 99 68 42 35 28 14 18 25 27 32 34 46 52 52 69 132 167 183 190 193 187 180 182 191 203 215 207 196 199 164 132 131 143 159 132 154 178 195 190
183 184 188 176 100 4 353 358 353 348 5 19 30 43 50 55 61 59 41 41 60 45 66 164 163 168 166 122 341 265 233 212 183 160 159 165 168 172 175 182 182 181 183
191 193 204 220 258 320 344 2 9 349 2 23 32 40 56 68 80 91 79 50 56 61 57 50 53 77 65 63 71 109 102 107 142 182 183 181 182 184 186 190 191 196 204
Height
1492 1493 1494 1496 1498 1499 1501 1502 1503 1505 1506 1507 1509 1512 1514 1517 1519 1521 1523 1525 1527 1531 1534 1536 1539 1540 1542 1544 1547 1549 1551 1553 1555 1556 1557 1557 1558 1559 1558 1559 1559 1558 1558
1488 1490 1491 1493 1495 1496 1498 1499 1499 1500 1501 1502 1505 1508 1511 1513 1515 1516 1519 1521 1523 1525 1528 1531 1534 1536 1538 1541 1543 1545 1548 1550 1552 1554 1555 1556 1558 1557 1558 1559 1559 1560 1559
1485 1488 1490 1492 1493 1494 1495 1496 1497 1497 1498 1499 1501 1504 1506 1509 1510 1512 1514 1516 1518 1521 1523 1527 1530 1532 1535 1537 1539 1542 1544 1546 1549 1552 1554 1554 1555 1556 1558 1558 1559 1559 1559
1482 1485 1488 1491 1492 1493 1493 1494 1494 1495 1496 1497 1499 1501 1503 1505 1507 1508 1509 1511 1514 1516 1518 1521 1524 1527 1530 1533 1536 1538 1540 1543 1546 1549 1550 1553 1554 1554 1556 1557 1558 1558 1558
1479 1483 1486 1489 1491 1491 1492 1493 1493 1494 1495 1496 1497 1499 1501 1503 1503 1504 1505 1507 1508 1511 1513 1516 1519 1522 1525 1528 1531 1533 1536 1539 1542 1545 1547 1549 1551 1552 1553 1554 1555 1556 1557
1478 1482 1485 1487 1489 1490 1491 1492 1492 1493 1494 1494 1496 1498 1499 1500 1500 1501 1502 1503 1504 1506 1508 1510 1513 1516 1518 1522 1525 1529 1532 1535 1538 1542 1544 1546 1549 1550 1551 1552 1553 1554 1555
1477 1480 1483 1486 1487 1488 1490 1491 1491 1492 1493 1494 1495 1497 1497 1498 1499 1499 1499 1500 1501 1502 1504 1506 1508 1510 1513 1516 1520 1524 1527 1530 1534 1537 1540 1543 1546 1548 1549 1550 1550 1551 1553
1476 1479 1482 1484 1486 1487 1488 1489 1490 1491 1491 1492 1494 1495 1495 1495 1496 1497 1497 1498 1498 1499 1500 1501 1503 1506 1508 1511 1514 1518 1523 1526 1529 1533 1535 1539 1542 1544 1546 1547 1548 1549 1550
1476 1478 1481 1482 1484 1485 1486 1487 1488 1489 1490 1491 1492 1493 1493 1494 1494 1495 1495 1495 1496 1497 1497 1499 1500 1502 1505 1507 1510 1514 1518 1522 1525 1528 1531 1534 1537 1539 1541 1543 1545 1546 1547
1474 1476 1478 1480 1481 1483 1484 1485 1486 1487 1488 1489 1490 1490 1491 1492 1492 1493 1493 1494 1495 1495 1496 1497 1499 1501 1503 1505 1507 1510 1514 1518 1521 1525 1528 1530 1533 1535 1537 1538 1540 1542 1543
1473 1474 1476 1477 1478 1479 1480 1482 1483 1485 1486 1487 1488 1488 1490 1490 1491 1492 1492 1493 1494 1495 1496 1497 1498 1500 1502 1504 1506 1508 1511 1514 1518 1521 1524 1527 1529 1531 1533 1534 1535 1537 1539
1470 1471 1472 1473 1474 1475 1477 1479 1480 1482 1483 1484 1485 1487 1488 1488 1489 1490 1491 1492 1493 1494 1496 1497 1498 1499 1501 1503 1505 1507 1509 1512 1515 1518 1521 1523 1526 1527 1529 1529 1531 1532 1534
1467 1467 1467 1468 1469 1471 1473 1475 1477 1479 1481 1482 1483 1484 1485 1486 1487 1488 1489 1491 1492 1493 1494 1496 1497 1499 1500 1502 1504 1506 1508 1510 1512 1515 1517 1520 1522 1523 1524 1525 1526 1528 1529
1463 1463 1463 1463 1463 1466 1468 1472 1474 1476 1478 1479 1480 1481 1482 1483 1484 1486 1487 1488 1490 1492 1493 1495 1496 1497 1499 1501 1502 1504 1506 1508 1509 1511 1513 1515 1517 1519 1520 1520 1521 1523 1524
1459 1459 1459 1459 1459 1461 1464 1468 1471 1473 1475 1476 1478 1479 1480 1480 1481 1483 1484 1486 1487 1489 1491 1492 1494 1496 1497 1499 1500 1502 1503 1505 1506 1507 1509 1510 1512 1513 1515 1515 1516 1518 1519
1456 1455 1456 1456 1457 1459 1461 1465 1468 1470 1472 1474 1475 1476 1476 1477 1478 1479 1481 1482 1483 1485 1487 1489 1491 1492 1494 1496 1497 1499 1500 1501 1503 1504 1505 1506 1506 1507 1508 1510 1511 1512 1513
1454 1454 1454 1455 1456 1459 1461 1464 1466 1468 1469 1471 1471 1472 1473 1473 1475 1476 1477 1478 1480 1482 1484 1486 1488 1489 1491 1492 1494 1495 1497 1498 1499 1499 1500 1500 1501 1502 1503 1504 1505 1506 1507
1455 1454 1455 1456 1458 1459 1461 1463 1465 1466 1467 1467 1468 1468 1468 1469 1471 1472 1473 1475 1477 1478 1480 1482 1484 1486 1488 1490 1491 1492 1493 1494 1495 1495 1495 1495 1496 1496 1497 1499 1500 1501 1502
1457 1457 1458 1459 1460 1461 1462 1463 1464 1464 1464 1464 1464 1464 1464 1465 1466 1468 1469 1471 1473 1475 1476 1478 1480 1483 1485 1486 1488 1489 1490 1490 1490 1490 1490 1491 1491 1491 1493 1494 1495 1497 1498
1462 1461 1462 1462 1462 1462 1463 1463 1463 1463 1462 1462 1461 1461 1461 1461 1462 1463 1464 1466 1468 1470 1472 1474 1476 1479 1481 1483 1484 1485 1486 1486 1486 1486 1486 1486 1486 1487 1488 1489 1491 1492 1493
1466 1466 1465 1464 1464 1464 1464 1464 1463 1462 1462 1461 1460 1459 1458 1458 1458 1458 1459 1461 1462 1464 1466 1469 1471 1474 1476 1478 1480 1481 1482 1483 1483 1482 1482 1482 1482 1483 1484 1485 1487 1488 1489
1469 1468 1468 1466 1466 1466 1466 1465 1464 1463 1462 1461 1459 1458 1457 1456 1455 1455 1456 1457 1458 1460 1462 1464 1467 1470 1472 1474 1476 1477 1478 1479 1479 1479 1478 1478 1479 1480 1481 1482 1484 1485 1486
1470 1470 1470 1469 1468 1468 1468 1467 1465 1464 1463 1462 1460 1459 1457 1456 1454 1454 1454 1455 1456 1457 1459 1462 1464 1466 1468 1470 1472 1474 1475 1475 1476 1476 1475 1475 1476 1477 1479 1480 1481 1482 1483
1470 1470 1471 1471 1471 1470 1468 1468 1466 1465 1464 1463 1461 1460 1458 1457 1455 1454 1454 1455 1455 1457 1458 1460 1462 1464 1466 1468 1469 1470 1471 1472 1473 1473 1473 1474 1474 1476 1477 1478 1479 1480 1481
1470 1470 1471 1472 1472 1471 1469 1468 1466 1465 1465 1464 1463 1461 1460 1458 1457 1456 1456 1456 1457 1458 1459 1460 1462 1464 1465 1466 1466 1467 1468 1469 1470 1471 1471 1472 1473 1474 1475 1476 1477 1477 1478
1470 1470 1471 1472 1472 1471 1470 1468 1466 1466 1466 1465 1464 1463 1462 1461 1460 1459 1459 1459 1459 1459 1460 1461 1462 1462 1463 1464 1464 1464 1465 1466 1467 1469 1469 1470 1471 1472 1473 1474 1474 1475 1475